AMX5592 MMGL-MMAA

Flight info

Callsign AMX5592
Flight time 0h 58m
Altitude 35000
Route EMIRI1B EMIRI DCT ZIH J1 AVURO AVURO1B
Aircraft B38M/M-SDE1FGHILORVWXY/HB1

Departure

Time 2026-04-24 03:03
Airport Guadalajara International Airport (MMGL)

Arrival

Time 2026-04-24 04:02
Airport General Juan N. Álvarez International Airport (MMAA)
Time Latitude Longitude Altitude Speed Heading
2026-04-24 02:40 20.52502 -103.30339 5032 ft 0 kts 20°
2026-04-24 02:51 20.52487 -103.30346 5032 ft 2 kts 26°
2026-04-24 02:52 20.52473 -103.30354 5032 ft 2 kts 38°
2026-04-24 02:52 20.52461 -103.30367 5027 ft 2 kts 63°
2026-04-24 02:52 20.52458 -103.30384 5032 ft 2 kts 98°
2026-04-24 02:52 20.52460 -103.30395 5032 ft 1 kts 106°
2026-04-24 02:58 20.52459 -103.30390 5032 ft 3 kts 106°
2026-04-24 02:59 20.52451 -103.30362 5032 ft 5 kts 108°
2026-04-24 02:59 20.52438 -103.30323 5029 ft 6 kts 108°
2026-04-24 02:59 20.52418 -103.30257 5031 ft 11 kts 109°
2026-04-24 02:59 20.52366 -103.30220 5030 ft 10 kts 192°
2026-04-24 03:00 20.52294 -103.30242 5031 ft 11 kts 184°
2026-04-24 03:00 20.52237 -103.30193 5027 ft 12 kts 117°
2026-04-24 03:00 20.52202 -103.30112 5030 ft 13 kts 114°
2026-04-24 03:00 20.52165 -103.30022 5027 ft 14 kts 113°
2026-04-24 03:01 20.52124 -103.29926 5031 ft 15 kts 115°
2026-04-24 03:01 20.52082 -103.29827 5031 ft 15 kts 114°
2026-04-24 03:01 20.52037 -103.29721 5030 ft 16 kts 114°
2026-04-24 03:01 20.51991 -103.29610 5028 ft 17 kts 114°
2026-04-24 03:02 20.51943 -103.29541 5029 ft 10 kts 162°
2026-04-24 03:02 20.51877 -103.29553 5033 ft 10 kts 201°
2026-04-24 03:02 20.51820 -103.29595 5028 ft 10 kts 256°
2026-04-24 03:02 20.51853 -103.29698 5032 ft 36 kts 294°
2026-04-24 03:03 20.52060 -103.30190 5029 ft 109 kts 294°
2026-04-24 03:03 20.52457 -103.31143 5028 ft 168 kts 294°
2026-04-24 03:03 20.52953 -103.32339 5574 ft 181 kts 294°
2026-04-24 03:03 20.53506 -103.33625 6136 ft 203 kts 295°
2026-04-24 03:04 20.54136 -103.35040 6706 ft 217 kts 295°
2026-04-24 03:04 20.54779 -103.36574 7135 ft 226 kts 291°
2026-04-24 03:04 20.55311 -103.38148 7644 ft 229 kts 289°
2026-04-24 03:04 20.55829 -103.39778 8149 ft 234 kts 287°
2026-04-24 03:05 20.56162 -103.40875 8512 ft 239 kts 287°
2026-04-24 03:05 20.56860 -103.43350 8812 ft 284 kts 285°
2026-04-24 03:05 20.57244 -103.44775 8777 ft 313 kts 285°
2026-04-24 03:05 20.57871 -103.47158 8881 ft 343 kts 286°
2026-04-24 03:06 20.58274 -103.49599 10001 ft 330 kts 266°
2026-04-24 03:06 20.57614 -103.51863 11229 ft 322 kts 238°
2026-04-24 03:06 20.55990 -103.53529 12018 ft 331 kts 208°
2026-04-24 03:06 20.53758 -103.54126 12778 ft 341 kts 179°
2026-04-24 03:07 20.51439 -103.53558 13601 ft 347 kts 161°
2026-04-24 03:07 20.49046 -103.53006 14309 ft 350 kts 181°
2026-04-24 03:07 20.46658 -103.53437 15057 ft 351 kts 202°
2026-04-24 03:07 20.44429 -103.54546 15739 ft 355 kts 207°
2026-04-24 03:08 20.42111 -103.55419 16429 ft 362 kts 191°
2026-04-24 03:08 20.37120 -103.54622 17785 ft 374 kts 153°
2026-04-24 03:08 20.35008 -103.52985 18412 ft 378 kts 134°
2026-04-24 03:09 20.33447 -103.50739 18972 ft 383 kts 118°
2026-04-24 03:09 20.32147 -103.48217 19546 ft 388 kts 118°
2026-04-24 03:09 20.30868 -103.45700 20098 ft 392 kts 118°
2026-04-24 03:09 20.29583 -103.43131 20672 ft 395 kts 117°
2026-04-24 03:10 20.28277 -103.40496 21218 ft 399 kts 117°
2026-04-24 03:10 20.26975 -103.37858 21733 ft 403 kts 117°
2026-04-24 03:10 20.25672 -103.35213 22233 ft 407 kts 117°
2026-04-24 03:10 20.24359 -103.32550 22724 ft 411 kts 117°
2026-04-24 03:11 20.23024 -103.29841 23217 ft 414 kts 117°
2026-04-24 03:11 20.21671 -103.27097 23692 ft 417 kts 117°
2026-04-24 03:11 20.20319 -103.24355 24134 ft 421 kts 117°
2026-04-24 03:11 20.18964 -103.21610 24574 ft 424 kts 117°
2026-04-24 03:12 20.17569 -103.18785 25036 ft 427 kts 117°
2026-04-24 03:12 20.16198 -103.16012 25439 ft 431 kts 117°
2026-04-24 03:12 20.14792 -103.13166 25886 ft 434 kts 117°
2026-04-24 03:12 20.13362 -103.10294 26303 ft 437 kts 120°
2026-04-24 03:13 20.11528 -103.07721 26701 ft 440 kts 137°
2026-04-24 03:13 20.09146 -103.05657 27084 ft 442 kts 143°
2026-04-24 03:13 20.06686 -103.03671 27418 ft 447 kts 144°
2026-04-24 03:13 20.04211 -103.01703 27828 ft 449 kts 144°
2026-04-24 03:14 20.01673 -102.99710 28193 ft 452 kts 144°
2026-04-24 03:14 19.99144 -102.97734 28555 ft 455 kts 144°
2026-04-24 03:14 19.96664 -102.95625 28933 ft 456 kts 134°
2026-04-24 03:14 19.94744 -102.92979 29337 ft 457 kts 118°
2026-04-24 03:15 19.93395 -102.89896 29628 ft 459 kts 112°
2026-04-24 03:15 19.92133 -102.86740 29911 ft 463 kts 112°
2026-04-24 03:15 19.90903 -102.83593 30227 ft 466 kts 111°
2026-04-24 03:15 19.89663 -102.80373 30566 ft 468 kts 111°
2026-04-24 03:16 19.88445 -102.77185 30864 ft 471 kts 111°
2026-04-24 03:16 19.87207 -102.73936 31190 ft 474 kts 111°
2026-04-24 03:16 19.85965 -102.70681 31482 ft 477 kts 111°
2026-04-24 03:16 19.84707 -102.67383 31790 ft 479 kts 111°
2026-04-24 03:17 19.83456 -102.64104 32050 ft 482 kts 111°
2026-04-24 03:17 19.82113 -102.60812 32310 ft 485 kts 118°
2026-04-24 03:17 19.80202 -102.57888 32631 ft 486 kts 132°
2026-04-24 03:17 19.77664 -102.55492 32845 ft 488 kts 148°
2026-04-24 03:18 19.74714 -102.53787 33133 ft 488 kts 155°
2026-04-24 03:18 19.71653 -102.52184 33330 ft 492 kts 155°
2026-04-24 03:18 19.68588 -102.50609 33656 ft 492 kts 156°
2026-04-24 03:18 19.65493 -102.49044 34009 ft 493 kts 156°
2026-04-24 03:19 19.62388 -102.47485 34394 ft 492 kts 156°
2026-04-24 03:19 19.59289 -102.45934 34789 ft 491 kts 156°
2026-04-24 03:19 19.56183 -102.44379 35087 ft 491 kts 156°
2026-04-24 03:20 19.50018 -102.41297 35126 ft 487 kts 156°
2026-04-24 03:20 19.43897 -102.38239 35119 ft 487 kts 156°
2026-04-24 03:21 19.37770 -102.35181 35113 ft 486 kts 156°
2026-04-24 03:21 19.31672 -102.32140 35112 ft 486 kts 156°
2026-04-24 03:22 19.25550 -102.29089 35110 ft 485 kts 156°
2026-04-24 03:22 19.19428 -102.26041 35099 ft 485 kts 156°
2026-04-24 03:23 19.13338 -102.23012 35104 ft 484 kts 156°
2026-04-24 03:23 19.07226 -102.19973 35109 ft 484 kts 156°
2026-04-24 03:24 19.01166 -102.16964 35109 ft 483 kts 156°
2026-04-24 03:24 18.95069 -102.13938 35110 ft 482 kts 155°
2026-04-24 03:25 18.88987 -102.10922 35102 ft 481 kts 156°
2026-04-24 03:25 18.82933 -102.07922 35101 ft 480 kts 155°
2026-04-24 03:26 18.76923 -102.04947 35094 ft 480 kts 155°
2026-04-24 03:26 18.70858 -102.01946 35094 ft 479 kts 155°
2026-04-24 03:27 18.64830 -101.98967 35095 ft 478 kts 155°
2026-04-24 03:27 18.58818 -101.95998 35084 ft 479 kts 155°
2026-04-24 03:28 18.52771 -101.93014 35082 ft 479 kts 155°
2026-04-24 03:28 18.46763 -101.90051 35078 ft 478 kts 155°
2026-04-24 03:29 18.40712 -101.87069 35074 ft 478 kts 155°
2026-04-24 03:29 18.34700 -101.84109 35005 ft 477 kts 155°
2026-04-24 03:30 18.28679 -101.81147 34979 ft 477 kts 155°
2026-04-24 03:30 18.22675 -101.78196 34973 ft 476 kts 155°
2026-04-24 03:31 18.16708 -101.75265 34960 ft 476 kts 155°
2026-04-24 03:31 18.10688 -101.72310 34953 ft 476 kts 155°
2026-04-24 03:32 18.04686 -101.69366 34942 ft 476 kts 155°
2026-04-24 03:32 17.98683 -101.66424 34934 ft 476 kts 155°
2026-04-24 03:33 17.92678 -101.63482 34929 ft 475 kts 155°
2026-04-24 03:33 17.86719 -101.60566 34926 ft 475 kts 155°
2026-04-24 03:34 17.80726 -101.57636 34924 ft 476 kts 155°
2026-04-24 03:34 17.74723 -101.54702 34916 ft 475 kts 155°
2026-04-24 03:35 17.68715 -101.51768 34916 ft 477 kts 155°
2026-04-24 03:35 17.62814 -101.48719 34619 ft 466 kts 145°
2026-04-24 03:35 17.60362 -101.46514 33994 ft 463 kts 129°
2026-04-24 03:36 17.58575 -101.43739 33433 ft 458 kts 117°
2026-04-24 03:36 17.57084 -101.40816 32929 ft 454 kts 117°
2026-04-24 03:36 17.55622 -101.37898 32394 ft 451 kts 116°
2026-04-24 03:36 17.54184 -101.34983 31860 ft 448 kts 116°
2026-04-24 03:37 17.52767 -101.32077 31324 ft 446 kts 115°
2026-04-24 03:37 17.51367 -101.29198 30805 ft 443 kts 115°
2026-04-24 03:37 17.49976 -101.26334 30284 ft 441 kts 115°
2026-04-24 03:37 17.48582 -101.23463 29766 ft 438 kts 115°
2026-04-24 03:38 17.47218 -101.20655 29252 ft 436 kts 115°
2026-04-24 03:38 17.45845 -101.17830 28740 ft 434 kts 115°
2026-04-24 03:38 17.44460 -101.14980 28231 ft 432 kts 115°
2026-04-24 03:38 17.43120 -101.12225 27726 ft 429 kts 115°
2026-04-24 03:39 17.41752 -101.09414 27245 ft 426 kts 115°
2026-04-24 03:39 17.40409 -101.06656 26759 ft 424 kts 115°
2026-04-24 03:39 17.39073 -101.03912 26279 ft 421 kts 115°
2026-04-24 03:39 17.37764 -101.01226 25828 ft 419 kts 115°
2026-04-24 03:40 17.36440 -100.98511 25340 ft 416 kts 115°
2026-04-24 03:40 17.35134 -100.95832 24895 ft 412 kts 116°
2026-04-24 03:40 17.33834 -100.93167 24448 ft 410 kts 116°
2026-04-24 03:40 17.32543 -100.90521 24001 ft 407 kts 116°
2026-04-24 03:41 17.31259 -100.87891 23565 ft 404 kts 116°
2026-04-24 03:41 17.29982 -100.85276 23138 ft 401 kts 116°
2026-04-24 03:41 17.28714 -100.82682 22717 ft 399 kts 116°
2026-04-24 03:41 17.27456 -100.80106 22302 ft 396 kts 115°
2026-04-24 03:42 17.26207 -100.77553 21887 ft 393 kts 115°
2026-04-24 03:42 17.24968 -100.75020 21477 ft 390 kts 115°
2026-04-24 03:42 17.23735 -100.72501 21076 ft 387 kts 115°
2026-04-24 03:42 17.22512 -100.70001 20649 ft 385 kts 115°
2026-04-24 03:43 17.21703 -100.68350 20344 ft 384 kts 115°
2026-04-24 03:43 17.20094 -100.65067 19838 ft 380 kts 115°
2026-04-24 03:43 17.18894 -100.62618 19455 ft 377 kts 116°
2026-04-24 03:43 17.17704 -100.60192 19063 ft 374 kts 115°
2026-04-24 03:44 17.16920 -100.58594 18832 ft 371 kts 115°
2026-04-24 03:44 17.15749 -100.56208 18488 ft 367 kts 115°
2026-04-24 03:44 17.14588 -100.53841 18121 ft 364 kts 115°
2026-04-24 03:44 17.13438 -100.51498 17747 ft 360 kts 115°
2026-04-24 03:45 17.12299 -100.49179 17371 ft 358 kts 115°
2026-04-24 03:45 17.11162 -100.46866 16995 ft 355 kts 115°
2026-04-24 03:45 17.10040 -100.44583 16625 ft 352 kts 116°
2026-04-24 03:45 17.08924 -100.42313 16256 ft 350 kts 116°
2026-04-24 03:46 17.07814 -100.40056 15888 ft 347 kts 116°
2026-04-24 03:46 17.06715 -100.37823 15523 ft 345 kts 116°
2026-04-24 03:46 17.05624 -100.35606 15159 ft 342 kts 116°
2026-04-24 03:46 17.04540 -100.33405 14800 ft 339 kts 116°
2026-04-24 03:47 17.03460 -100.31212 14439 ft 337 kts 116°
2026-04-24 03:47 17.02394 -100.29048 14079 ft 334 kts 116°
2026-04-24 03:47 17.01331 -100.26892 13722 ft 332 kts 116°
2026-04-24 03:47 17.00279 -100.24756 13367 ft 330 kts 116°
2026-04-24 03:48 16.99255 -100.22647 13008 ft 327 kts 112°
2026-04-24 03:48 16.98553 -100.20399 12615 ft 325 kts 105°
2026-04-24 03:48 16.97901 -100.18147 12278 ft 322 kts 106°
2026-04-24 03:48 16.97230 -100.15916 11941 ft 320 kts 106°
2026-04-24 03:49 16.96555 -100.13714 11600 ft 317 kts 107°
2026-04-24 03:49 16.95876 -100.11528 11261 ft 315 kts 107°
2026-04-24 03:49 16.95207 -100.09390 10918 ft 313 kts 107°
2026-04-24 03:49 16.94545 -100.07282 10599 ft 310 kts 107°
2026-04-24 03:50 16.93877 -100.05154 10391 ft 304 kts 108°
2026-04-24 03:50 16.93235 -100.03114 10252 ft 295 kts 108°
2026-04-24 03:50 16.92604 -100.01104 10112 ft 287 kts 108°
2026-04-24 03:50 16.91984 -99.99139 9855 ft 284 kts 108°
2026-04-24 03:51 16.91369 -99.97185 9551 ft 282 kts 108°
2026-04-24 03:51 16.90760 -99.95248 9231 ft 280 kts 108°
2026-04-24 03:51 16.90150 -99.93312 8940 ft 280 kts 108°
2026-04-24 03:51 16.89543 -99.91390 8636 ft 279 kts 108°
2026-04-24 03:52 16.88938 -99.89470 8327 ft 278 kts 109°
2026-04-24 03:52 16.88327 -99.87533 8010 ft 283 kts 108°
2026-04-24 03:52 16.87708 -99.85571 7715 ft 285 kts 109°
2026-04-24 03:52 16.87086 -99.83602 7404 ft 285 kts 109°
2026-04-24 03:53 16.86465 -99.81637 7105 ft 285 kts 109°
2026-04-24 03:53 16.85853 -99.79684 6832 ft 282 kts 109°
2026-04-24 03:53 16.85249 -99.77747 6551 ft 279 kts 108°
2026-04-24 03:53 16.84651 -99.75836 6291 ft 275 kts 109°
2026-04-24 03:54 16.84056 -99.73938 6051 ft 276 kts 109°
2026-04-24 03:54 16.83459 -99.72031 5791 ft 276 kts 109°
2026-04-24 03:54 16.82865 -99.70133 5544 ft 273 kts 109°
2026-04-24 03:54 16.82277 -99.68255 5290 ft 270 kts 109°
2026-04-24 03:55 16.81696 -99.66401 5043 ft 266 kts 109°
2026-04-24 03:55 16.81125 -99.64576 4810 ft 262 kts 108°
2026-04-24 03:55 16.80562 -99.62782 4581 ft 257 kts 109°
2026-04-24 03:55 16.80009 -99.61022 4312 ft 254 kts 109°
2026-04-24 03:56 16.79469 -99.59301 4142 ft 244 kts 109°
2026-04-24 03:56 16.78636 -99.57871 4087 ft 223 kts 139°
2026-04-24 03:56 16.77385 -99.57162 4052 ft 196 kts 169°
2026-04-24 03:56 16.76112 -99.57135 4033 ft 172 kts 193°
2026-04-24 03:57 16.74975 -99.57404 4022 ft 167 kts 195°
2026-04-24 03:57 16.73831 -99.57673 4057 ft 170 kts 194°
2026-04-24 03:57 16.72677 -99.57962 4078 ft 170 kts 197°
2026-04-24 03:57 16.71685 -99.58574 3979 ft 165 kts 232°
2026-04-24 03:58 16.71299 -99.59672 3978 ft 164 kts 266°
2026-04-24 03:58 16.71255 -99.60871 3575 ft 164 kts 270°
2026-04-24 03:58 16.71359 -99.62010 3238 ft 151 kts 282°
2026-04-24 03:58 16.71684 -99.63041 2958 ft 149 kts 292°
2026-04-24 03:59 16.72117 -99.64065 2769 ft 157 kts 294°
2026-04-24 03:59 16.72533 -99.65100 2546 ft 152 kts 287°
2026-04-24 03:59 16.72809 -99.66163 2241 ft 153 kts 284°
2026-04-24 03:59 16.73134 -99.67219 1872 ft 150 kts 288°
2026-04-24 04:00 16.73467 -99.68259 1366 ft 153 kts 287°
2026-04-24 04:00 16.73769 -99.69310 974 ft 148 kts 287°
2026-04-24 04:00 16.74099 -99.70309 647 ft 143 kts 288°
2026-04-24 04:00 16.74420 -99.71313 456 ft 152 kts 288°
2026-04-24 04:01 16.74765 -99.72385 299 ft 158 kts 287°
2026-04-24 04:01 16.75103 -99.73451 90 ft 154 kts 287°
2026-04-24 04:01 16.75414 -99.74439 27 ft 129 kts 288°
2026-04-24 04:01 16.75632 -99.75136 26 ft 70 kts 288°
2026-04-24 04:02 16.75707 -99.75337 28 ft 12 kts 334°
2026-04-24 04:02 16.75723 -99.75338 24 ft 1 kts
2026-04-24 04:02 16.75751 -99.75378 25 ft 2 kts 276°
2026-04-24 04:02 16.75763 -99.75391 25 ft 1 kts 349°
2026-04-24 04:03 16.75767 -99.75367 24 ft 11 kts 101°
2026-04-24 04:03 16.75772 -99.75251 25 ft 18 kts 75°
2026-04-24 04:03 16.75806 -99.75152 25 ft 11 kts 70°
2026-04-24 04:03 16.75816 -99.75132 23 ft 0 kts 44°
2026-04-24 04:04 16.75821 -99.75131 23 ft 1 kts 14°
2026-04-24 04:04 16.75833 -99.75141 23 ft 6 kts 301°
2026-04-24 04:04 16.75851 -99.75198 25 ft 10 kts 287°
2026-04-24 04:04 16.75876 -99.75276 27 ft 13 kts 288°
2026-04-24 04:05 16.75905 -99.75370 27 ft 15 kts 288°
2026-04-24 04:05 16.75939 -99.75480 24 ft 17 kts 288°
2026-04-24 04:05 16.75972 -99.75585 26 ft 14 kts 293°
2026-04-24 04:05 16.76052 -99.75588 25 ft 13 kts 14°
2026-04-24 04:06 16.76128 -99.75565 23 ft 8 kts 18°
2026-04-24 04:06 16.76142 -99.75560 23 ft 0 kts 17°